Weather observations for the past three days for
Novato / Gnoss Field
Imperial (Metric)
Date Time (pdt) Wind (mph) Vis. (mi.) Weather Sky Cond. Temperature (ºF) Relative Humidity Wind Chill (°F) Heat Index (°F) Pressure Precipitation (in)
Air Dwpt 6 hour altimeter (in) sea level (mb) 1 hr 3 hr 6 hr
Max. Min.
21 06:55 NE 3 10.00 A Few Clouds FEW009 53.6 53.6 100% 29.93 0.0
21 06:35 Calm 10.00 Fair CLR 53.6 53.6 100% 29.93 0.0
21 06:15 Calm 10.00 Fair CLR 53.6 53.6 100% 29.93 0.0
21 05:55 Calm 10.00 Fair CLR 53.6 53.6 100% 29.93 0.0
21 05:35 Calm 10.00 Fair CLR 53.6 53.6 100% 29.92 0.0
21 05:15 Calm 10.00 Fair CLR 51.8 51.8 100% 29.92 0.0
21 04:55 Calm 10.00 Fair CLR 53.6 53.6 100% 29.91 0.0
21 04:35 Calm 10.00 Fair CLR 53.6 53.6 100% 29.91 0.0
21 04:15 Calm 10.00 Fair CLR 53.6 53.6 100% 29.91 0.0
21 03:55 Calm 10.00 Fair CLR 53.6 53.6 100% 29.91 0.0
21 03:35 Calm 10.00 Fair CLR 55.4 55.4 100% 29.92 0.0
21 03:15 Calm 10.00 Fair CLR 53.6 53.6 100% 29.92 0.0
21 02:55 Calm 10.00 Fair CLR 55.4 55.4 100% 29.92 0.0
21 02:35 N 3 10.00 Fair CLR 55.4 55.4 100% 29.92 0.0
21 02:15 N 7 10.00 Fair CLR 55.4 55.4 100% 29.91 0.0
21 01:55 Calm 10.00 Fair CLR 55.4 55.4 100% 29.91 0.0
21 01:35 N 3 10.00 Fair CLR 55.4 55.4 100% 29.92 0.0
21 01:15 Calm 10.00 Fair CLR 57.2 55.4 94% 29.92 0.0
21 00:55 Calm 10.00 Fair CLR 57.2 57.2 100% 29.92 0.0
21 00:35 Calm 10.00 Fair CLR 57.2 57.2 100% 29.92 0.0
21 00:15 N 3 10.00 Fair CLR 59 55.4 88% 29.92 0.0
20 23:55 N 6 10.00 Fair CLR 59 55.4 88% 29.92 0.0
20 23:35 N 7 10.00 Fair CLR 59 53.6 82% 29.91 0.0
20 23:15 N 7 10.00 Fair CLR 59 53.6 82% 29.91 0.0
20 22:55 N 6 10.00 Fair CLR 59 53.6 82% 29.92 0.0
20 22:35 N 8 10.00 Fair CLR 59 53.6 82% 29.92 0.0
20 22:15 N 9 10.00 Fair CLR 60.8 53.6 77% 29.92 0.0
20 21:55 Calm 10.00 Fair CLR 62.6 53.6 73% 29.91 0.0
20 21:35 E 6 10.00 Fair CLR 64.4 53.6 68% 29.91 0.0
20 21:15 E 3 10.00 Fair CLR 66.2 53.6 64% 29.91 0.0
20 20:55 E 3 10.00 Fair CLR 68 51.8 56% 29.9 0.0
20 20:35 S 3 10.00 Fair CLR 71.6 51.8 50% 29.89 0.0
20 20:15 SE 7 10.00 Fair CLR 75.2 53.6 47% 78 29.88 0.0
20 19:55 Vrbl 5 10.00 Fair CLR 75.2 53.6 47% 78 29.87 0.0
20 19:35 S 8 10.00 Fair CLR 77 53.6 44% 78 29.87 0.0
20 19:15 S 7 10.00 Fair CLR 78.8 53.6 42% 79 29.86 0.0
20 18:55 S 6 G 14 10.00 Fair CLR 78.8 53.6 42% 79 29.86 0.0
20 18:35 S 8 G 18 10.00 Fair CLR 78.8 55.4 45% 79 29.85 0.0
20 18:15 SW 9 10.00 Fair CLR 80.6 55.4 42% 81 29.85 0.0
20 17:55 S 8 10.00 Fair CLR 80.6 55.4 42% 81 29.85 0.0
20 17:35 S 10 10.00 Fair CLR 80.6 55.4 42% 81 29.86 0.0
20 17:15 S 12 G 18 10.00 Fair CLR 82.4 55.4 40% 82 29.85 0.0
20 16:55 S 8 G 17 10.00 Fair CLR 84.2 57.2 40% 83 29.86 0.0
20 16:35 S 9 G 16 10.00 Fair CLR 86 57.2 38% 85 29.86 0.0
20 16:15 SW 15 9.00 Fair CLR 89.6 60.8 38% 90 29.86 0.0
20 15:55 SW 9 G 17 10.00 Fair CLR 91.4 60.8 36% 91 29.87 0.0
20 15:35 SW 13 10.00 Fair CLR 91.4 59 34% 91 29.88 0.0
20 15:15 SW 14 10.00 Fair CLR 89.6 59 36% 89 29.88 0.0
20 14:55 SW 13 G 20 10.00 Fair CLR 91.4 59 34% 91 29.88 0.0
20 14:35 SW 15 G 22 10.00 Fair CLR 91.4 59 34% 91 29.88 0.0
20 14:15 E 10 10.00 Fair CLR 95 62.6 34% 96 29.89 0.0
20 13:55 Vrbl 7 9.00 Fair CLR 93.2 60.8 34% 93 29.89 0.0
20 13:35 E 7 10.00 Fair CLR 87.8 62.6 43% 88 29.9 0.0
20 13:15 E 7 10.00 Fair CLR 87.8 60.8 40% 88 29.9 0.0
20 12:55 E 9 10.00 Fair CLR 86 60.8 43% 86 29.9 0.0
20 12:15 SE 8 10.00 Fair CLR 84.2 60.8 45% 84 29.91 0.0
20 11:55 Vrbl 7 10.00 Fair CLR 82.4 60.8 48% 83 29.91 0.0
20 11:35 E 7 10.00 Fair CLR 82.4 59 45% 82 29.92 0.0
20 11:15 Vrbl 3 10.00 Fair CLR 80.6 57.2 45% 81 29.92 0.0
20 10:55 Vrbl 3 10.00 Fair CLR 80.6 57.2 45% 81 29.92 0.0
20 10:35 Calm 9.00 Fair CLR 78.8 57.2 48% 80 29.93 0.0
20 10:15 Calm 10.00 Fair CLR 75.2 55.4 50% 78 29.93 0.0
20 09:55 Calm 10.00 Fair CLR 73.4 55.4 53% 29.94 0.0
20 09:35 Calm 10.00 Fair CLR 71.6 55.4 57% 29.94 0.0
20 09:20 Calm 10.00 Fair CLR 69.8 55.4 60% 29.94 0.0
20 08:55 Calm 10.00 Fair CLR 68 55.4 64% 29.94 0.0
20 08:35 Calm 10.00 Fair CLR 66.2 55.4 68% 29.94 0.0
20 08:15 Calm 10.00 Fair CLR 66.2 55.4 68% 29.93 0.0
20 07:55 Calm 10.00 Fair CLR 62.6 55.4 77% 29.93 0.0
20 07:35 Calm 10.00 Fair CLR 60.8 55.4 83% 29.92 0.0
20 07:15 Calm 10.00 Fair CLR 59 55.4 88% 29.92 0.0
20 06:55 Calm 10.00 Fair CLR 55.4 55.4 100% 29.91 0.0
20 06:35 Calm 10.00 Fair CLR 55.4 55.4 100% 29.91 0.0
20 06:15 Calm 10.00 Fair CLR 57.2 55.4 94% 29.91 0.0
20 05:55 N 3 10.00 Fair CLR 53.6 53.6 100% 29.9 0.0
20 05:35 NW 5 10.00 Fair CLR 53.6 53.6 100% 29.9 0.0
20 05:15 Calm 10.00 Fair CLR 55.4 53.6 94% 29.89 0.0
20 04:55 Calm 10.00 Fair CLR 57.2 55.4 94% 29.89 0.0
20 04:35 Calm 10.00 Fair CLR 55.4 55.4 100% 29.88 0.0
20 04:15 N 6 10.00 Fair CLR 53.6 53.6 100% 29.89 0.0
20 03:55 N 5 10.00 Fair CLR 53.6 51.8 94% 29.89 0.0
20 03:35 Calm 10.00 Fair CLR 55.4 53.6 94% 29.89 0.0
20 03:15 Calm 10.00 Fair CLR 55.4 53.6 94% 29.89 0.0
20 02:35 NW 6 10.00 Fair CLR 55.4 53.6 94% 29.9 0.0
20 02:15 NW 5 10.00 Fair CLR 57.2 55.4 94% 29.9 0.0
20 01:55 Calm 10.00 Fair CLR 57.2 55.4 94% 29.9 0.0
20 01:35 Calm 10.00 Fair CLR 57.2 55.4 94% 29.9 0.0
20 01:15 Calm 10.00 Fair CLR 59 51.8 77% 29.91 0.0
20 00:55 N 7 10.00 Fair CLR 59 51.8 77% 29.91 0.0
20 00:35 N 8 10.00 Fair CLR 59 51.8 77% 29.9 0.0
20 00:15 N 6 10.00 Fair CLR 59 51.8 77% 29.91 0.0
19 23:55 N 8 10.00 Fair CLR 60.8 51.8 72% 29.92 0.0
19 23:35 N 7 10.00 Fair CLR 60.8 51.8 72% 29.92 0.0
19 23:15 N 7 10.00 Fair CLR 62.6 51.8 68% 29.92 0.0
19 22:55 N 8 10.00 Fair CLR 62.6 51.8 68% 29.92 0.0
19 22:35 N 8 10.00 Fair CLR 64.4 51.8 64% 29.92 0.0
19 22:15 N 7 10.00 Fair CLR 66.2 51.8 60% 29.92 0.0
19 21:55 N 8 10.00 Fair CLR 66.2 51.8 60% 29.92 0.0
19 21:35 N 9 10.00 Fair CLR 69.8 50 50% 29.91 0.0
19 21:15 N 8 9.00 Fair CLR 71.6 48.2 44% 29.9 0.0
19 20:55 N 5 10.00 Fair CLR 73.4 48.2 41% 29.89 0.0
19 20:35 NE 10 10.00 Fair CLR 78.8 48.2 34% 79 29.88 0.0
19 20:15 Vrbl 7 G 13 10.00 Fair CLR 82.4 46.4 28% 81 29.88 0.0
19 19:55 S 12 10.00 Fair CLR 84.2 48.2 29% 82 29.86 0.0
19 19:35 S 9 G 16 10.00 Fair CLR 86 48.2 27% 83 29.86 0.0
19 19:15 SE 9 10.00 Fair CLR 93.2 48.2 21% 90 29.86 0.0
19 18:55 NW 10 G 18 10.00 Fair CLR 93.2 48.2 21% 90 29.85 0.0
19 18:35 E 9 10.00 Fair CLR 95 50 22% 92 29.86 0.0
19 18:15 Vrbl 6 G 16 10.00 Fair CLR 96.8 46.4 18% 93 29.86 0.0
19 17:55 W 12 G 26 10.00 Fair CLR 98.6 42.8 15% 94 29.86 0.0
19 17:15 W 21 G 29 10.00 Fair and Breezy CLR 98.6 41 14% 94 29.87 0.0
19 16:55 W 15 G 29 10.00 Fair CLR 98.6 41 14% 94 29.88 0.0
19 16:35 W 16 G 24 10.00 Fair CLR 98.6 41 14% 94 29.88 0.0
19 16:15 W 16 G 30 10.00 Fair CLR 98.6 42.8 15% 94 29.89 0.0
19 15:55 W 15 G 23 10.00 Fair CLR 98.6 42.8 15% 94 29.89 0.0
19 15:35 W 13 G 20 10.00 Fair CLR 100.4 42.8 14% 96 29.9 0.0
19 15:15 W 13 G 18 10.00 Fair CLR 102.2 44.6 14% 98 29.91 0.0
19 14:55 Vrbl 5 G 12 10.00 Fair CLR 100.4 59 25% 100 29.92 0.0
19 14:35 E 7 10.00 Fair CLR 96.8 59 28% 96 29.93 0.0
19 14:15 SE 8 10.00 Fair CLR 96.8 62.6 32% 98 29.93 0.0
19 13:55 SE 8 10.00 Fair CLR 98.6 66.2 35% 103 29.94 0.0
19 13:35 SE 8 10.00 Fair CLR 95 62.6 34% 96 29.94 0.0
19 13:15 SE 6 10.00 Fair CLR 93.2 62.6 36% 94 29.94 0.0
19 12:55 E 6 10.00 Fair CLR 89.6 59 36% 89 29.95 0.0
19 12:35 E 6 10.00 Fair CLR 86 59 40% 85 29.96 0.0
19 12:15 E 9 10.00 Fair CLR 86 59 40% 85 29.96 0.0
19 11:55 SE 7 10.00 Fair CLR 86 59 40% 85 29.97 0.0
19 11:35 SE 5 10.00 Fair CLR 84.2 57.2 40% 83 29.97 0.0
19 11:15 Vrbl 3 10.00 Fair CLR 82.4 57.2 42% 82 29.97 0.0
19 10:55 Vrbl 3 10.00 Fair CLR 78.8 57.2 48% 80 29.98 0.0
19 10:35 Calm 10.00 Fair CLR 77 55.4 47% 79 29.98 0.0
19 10:15 Calm 10.00 Fair CLR 75.2 55.4 50% 78 29.99 0.0
19 09:35 Calm 10.00 Fair CLR 71.6 51.8 50% 30 0.0
19 09:15 Calm 10.00 Fair CLR 68 51.8 56% 30 0.0
19 08:55 Calm 10.00 Fair CLR 66.2 53.6 64% 30 0.0
19 08:35 Calm 10.00 Fair CLR 64.4 53.6 68% 30 0.0
19 08:15 Vrbl 3 10.00 Fair CLR 62.6 53.6 73% 30 0.0
19 07:55 Calm 10.00 Fair CLR 60.8 55.4 83% 30 0.0
19 07:35 N 3 10.00 Fair CLR 57.2 55.4 94% 30 0.0
19 07:15 Calm 10.00 Fair CLR 53.6 53.6 100% 30 0.0
19 06:55 NW 5 10.00 Fair CLR 51.8 51.8 100% 29.99 0.0
19 06:35 N 5 10.00 Fair CLR 50 50 100% 49 29.99 0.0
19 06:15 NW 3 10.00 Fair CLR 51.8 51.8 100% 29.98 0.0
19 05:55 Calm 10.00 Fair CLR 50 50 100% 29.98 0.0
19 05:35 Calm 10.00 Fair CLR 51.8 51.8 100% 29.98 0.0
19 05:15 Calm 10.00 Fair CLR 53.6 51.8 94% 29.98 0.0
19 04:55 Calm 10.00 Fair CLR 53.6 53.6 100% 29.98 0.0
19 04:35 N 3 10.00 Fair CLR 51.8 51.8 100% 29.97 0.0
19 04:15 Calm 10.00 Fair CLR 51.8 51.8 100% 29.97 0.0
19 03:55 Calm 10.00 Fair CLR 51.8 51.8 100% 29.97 0.0
19 03:35 Calm 10.00 Fair CLR 51.8 51.8 100% 29.98 0.0
19 03:15 Calm 10.00 Fair CLR 51.8 51.8 100% 29.98 0.0
19 02:55 NW 5 10.00 Fair CLR 53.6 53.6 100% 29.98 0.0
19 02:35 NW 3 10.00 Fair CLR 55.4 53.6 94% 29.98 0.0
19 02:15 N 6 10.00 Fair CLR 53.6 53.6 100% 29.98 0.0
19 01:55 N 5 10.00 Fair CLR 55.4 53.6 94% 29.98 0.0
19 01:35 NW 6 10.00 Fair CLR 55.4 51.8 88% 29.98 0.0
19 01:15 NW 7 10.00 Fair CLR 55.4 51.8 88% 29.98 0.0
19 00:55 NW 8 10.00 Fair CLR 57.2 50 77% 29.98 0.0
19 00:35 N 7 10.00 Fair CLR 57.2 50 77% 29.99 0.0
19 00:15 N 6 10.00 Fair CLR 55.4 50 82% 29.99 0.0
18 23:55 N 3 10.00 Fair CLR 59 51.8 77% 29.99 0.0
18 23:35 NW 3 10.00 Fair CLR 59 51.8 77% 29.99 0.0
18 23:15 Calm 10.00 Fair CLR 59 51.8 77% 29.99 0.0
18 22:55 N 5 10.00 Fair CLR 59 51.8 77% 29.99 0.0
18 22:35 N 7 10.00 Fair CLR 60.8 51.8 72% 29.98 0.0
18 22:15 N 5 10.00 Fair CLR 60.8 51.8 72% 29.98 0.0
18 21:55 N 5 10.00 Fair CLR 62.6 51.8 68% 29.98 0.0
18 21:35 N 5 10.00 Fair CLR 62.6 51.8 68% 29.98 0.0
18 21:15 N 5 10.00 Fair CLR 64.4 51.8 64% 29.97 0.0
18 20:55 Calm 10.00 Fair CLR 68 51.8 56% 29.96 0.0
18 20:35 NE 6 10.00 Fair CLR 68 51.8 56% 29.95 0.0
18 20:15 Vrbl 6 10.00 Fair CLR 73.4 50 44% 29.95 0.0
18 19:55 Vrbl 6 10.00 Fair CLR 75.2 51.8 44% 78 29.94 0.0
18 19:35 Vrbl 7 10.00 Fair CLR 78.8 51.8 39% 79 29.94 0.0
18 19:15 Vrbl 5 10.00 Fair CLR 82.4 50 32% 81 29.93 0.0
18 18:55 Vrbl 7 10.00 Fair CLR 84.2 50 31% 82 29.92 0.0
18 18:35 Vrbl 5 10.00 Fair CLR 86 50 29% 84 29.92 0.0
18 18:15 S 8 10.00 Fair CLR 86 50 29% 84 29.92 0.0
18 17:55 SW 10 G 16 10.00 Fair CLR 86 51.8 31% 84 29.92 0.0
18 17:35 SW 8 G 16 10.00 Fair CLR 86 53.6 33% 84 29.93 0.0
18 17:15 SW 14 9.00 Fair CLR 87.8 55.4 33% 86 29.93 0.0
18 16:55 SW 10 10.00 Fair CLR 89.6 55.4 31% 88 29.93 0.0
18 16:35 SW 12 10.00 Fair CLR 89.6 55.4 31% 88 29.94 0.0
18 16:15 S 9 10.00 Fair CLR 91.4 57.2 32% 90 29.94 0.0
18 15:55 SW 10 10.00 Fair CLR 93.2 57.2 30% 92 29.94 0.0
18 15:35 SW 8 8.00 Fair CLR 93.2 57.2 30% 92 29.94 0.0
18 15:15 NE 9 10.00 Fair CLR 96.8 64.4 34% 99 29.94 0.0
18 14:55 Vrbl 6 G 14 10.00 Fair CLR 93.2 62.6 36% 94 29.95 0.0
18 14:35 E 8 10.00 Fair CLR 89.6 62.6 41% 90 29.95 0.0
18 14:15 SE 7 10.00 Fair CLR 89.6 62.6 41% 90 29.96 0.0
18 13:55 E 6 10.00 Fair CLR 87.8 60.8 40% 88 29.96 0.0
18 13:35 SE 8 10.00 Fair CLR 86 60.8 43% 86 29.97 0.0
18 13:15 SE 9 10.00 Fair CLR 86 60.8 43% 86 29.97 0.0
18 12:55 Vrbl 5 10.00 Fair CLR 84.2 59 43% 84 29.97 0.0
18 12:35 SE 7 10.00 Fair CLR 82.4 59 45% 82 29.98 0.0
18 12:15 SE 9 9.00 Fair CLR 82.4 59 45% 82 29.98 0.0
18 11:55 Vrbl 7 10.00 Fair CLR 82.4 59 45% 82 29.98 0.0
18 11:35 Calm 10.00 Fair CLR 80.6 59 48% 81 29.98 0.0
18 11:15 Vrbl 6 10.00 Fair CLR 78.8 59 51% 80 29.99 0.0
18 10:35 N 5 10.00 Fair CLR 75.2 57.2 54% 78 29.99 0.0
18 10:15 Vrbl 6 10.00 Fair CLR 73.4 57.2 57% 29.99 0.0
18 09:55 Calm 10.00 Fair CLR 71.6 57.2 61% 29.99 0.0
18 09:35 Calm 10.00 Fair CLR 68 57.2 69% 30 0.0
18 09:15 Calm 10.00 Fair CLR 68 57.2 69% 30 0.0
18 08:55 N 6 10.00 Fair CLR 64.4 57.2 78% 30 0.0
18 08:35 N 6 10.00 Fair CLR 62.6 59 88% 30 0.0
18 08:15 N 3 10.00 Fair CLR 60.8 59 94% 30 0.0
18 07:55 N 5 10.00 Fair CLR 59 59 100% 30 0.0
18 07:35 NE 3 5.00 Fog/Mist CLR 57.2 57.2 100% 29.99 0.0
18 07:15 Calm 10.00 Fair CLR 55.4 55.4 100% 29.99 0.0
Date Time (pdt) Wind (mph) Vis. (mi.) Weather Sky Cond. Air Dwpt Max. Min. Relative Humidity Wind Chill (°F) Heat Index (°F) altimeter (in) sea level (mb) 1 hr 3 hr 6 hr
6 hour
Temperature (ºF) Pressure Precipitation (in)